297  
SXUS52 KCHS 172112  
OSOCHS  
 
MARINE OBSERVATIONS  
NATIONAL WEATHER SERVICE CHARLESTON SC  
500 PM EDT TUE JUL 17 2018  
   
..DOWNTOWN CHARLESTON AND HARBOR
 
 
 
CITY SKY/WX TMP DP RH WIND PRES REMARKS  
WATERFRONT PRK N/A 84 76 77 W7G15 29.81R HX 93  
   
..LAKE MOULTRIE
 
 
 
CITY SKY/WX TMP DP RH WIND PRES REMARKS  
PINOPOLIS N/A 90 75 62 SW10 29.85F HX 100  
   
..LAKE AND SUPPLEMENTAL COASTAL OBSERVATIONS
 
 
 
STATION/POSITION TIME TEMP WIND PRES WAVE SWELL  
AIR SEA DIR/SP/G HT/PER HT/PER/DIR  
(UTC) (F) (DEG/KT/KT) (MB) (FT/S) (FT/S/D)  
FORT PULASKI 2042 83 85 200/ 7/ 11 1015.7R  
SAPELO ISLAND 2000 80 200/ 20 1016.0  
WINYAH BAY 1945 82 220/ 11 1014.0  
LAKE MURRAY 2020 87 260/ 8/ 13 1011.5  
ACE BASIN NERRS 1945 76 290/ 2 1015.0  
 
   
..C-MAN AND BUOY OBSERVATIONS
 
 
 
STATION/POSITION TIME TEMP WIND PRES WAVE SWELL  
AIR SEA DIR/SP/G HT/PER HT/PER/DIR  
(UTC) (F) (DEG/KT/KT) (MB) (FT/S) (FT/S/D)  
BUOY 41004 2050 83 210/ 14/ 17 1015.8R 3/ 4 2/150/11  
BUOY 41008 2050 81 85 210/ 16/ 19 1016.3R 4/ 4 2/160/11  
FOLLY BEACH CMAN 2100 78 260/ 9/ 11 1016.2R  
PRITCHARDS ISLAN NOT AVBL  
CAPERS NS BUOY 2008 84 85 230/ 17/ 21 1013.7S  
FRIPP NS BUOY 2008 84 85 220/ 17/ 23 1015.2R  
5E ST. MARYS GA 2030 86 N/A 3/ 4  
 
 
STATION/POSITION TIME TEMP WIND PRES WAVE SWELL  
AIR SEA DIR/SP/G HT/PER HT/PER/DIR  
(UTC) (F) (DEG/KT/KT) (MB) (FT/S) (FT/S/D)  
FRYING PAN BUOY 2050 83 200/ 17/ 21 1014.8F 5/ 6  
BUOY 41025 2050 81 220/ 25/ 31 N/A 7/ 6  
CAPE LOOKOUT NC 2100 200/ 16/ 23 1013.9F  
BUOY 41002 2050 80 210/ 10/ 14 1018.3S  
BUOY 41010 2050 85 85 200/ 12/ 16 1018.4S 4/ 8 2/120/ 8  
ST AUGUSTINE FL 2100 78 83 270/ 7/ 8 1017.3F  
 

 
 
 
CLICK HERE TO GO TO PREVIOUS BULLETINS.

The Nexlab SC Page
The Nexlab GA Page Main Text Page